EHI
5 11 15 15 15 15 16 16 14 11 9 8 7 7 7 7 6 6 6 5 3 2 1 1 1 2 2 1 0 0 1 1 1 0 0 0 0 0 0 0 0 0 0
7 11 15 17 16 15 17 17 14 11 9 8 6 5 5 5 5 5 5 4 2 2 2 2 2 2 2 1 0 0 0 0 0 0 0 0 0 0 0 0 0 0 0
9 11 15 17 16 16 18 18 15 12 10 8 5 3 3 3 3 3 3 2 1 1 1 2 2 1 1 0 0 0 0 0 0 0 0 0 0 0 0 0 0 0 0
9 10 13 17 17 17 18 18 16 13 10 7 4 3 4 3 3 2 2 1 1 0 1 2 2 1 0 0 0 0 0 0 0 0 0 0 0 0 0 0 0 0 1
8 8 12 17 19 19 19 18 15 12 9 6 4 3 4 4 3 3 2 1 1 1 1 2 1 0 0 0 0 0 0 0 0 0 0 0 0 0 0 0 0 1 2
8 7 11 18 21 20 19 16 13 10 7 4 3 3 3 3 3 3 3 2 1 0 1 1 1 0 0 0 0 0 0 0 0 0 0 0 1 1 1 0 1 2 3
9 7 10 18 22 20 18 14 11 8 5 3 2 2 3 3 3 2 2 1 0 0 0 1 1 1 0 0 0 0 1 0 0 0 0 1 2 2 2 1 2 3 3
8 6 8 15 20 19 16 12 9 6 4 2 1 1 2 2 1 1 1 0 0 0 0 1 2 1 0 0 0 0 0 0 0 0 0 1 2 3 3 2 2 2 2
7 6 7 10 13 14 12 11 9 6 3 1 0 0 1 1 1 0 0 0 0 0 0 1 2 1 0 0 0 0 0 1 1 0 0 0 1 3 3 2 1 1 2
9 8 7 6 6 7 8 9 8 6 3 1 0 0 0 1 1 0 0 0 0 0 0 1 2 2 1 1 0 1 2 2 2 1 1 1 2 3 3 1 1 1 3
14 11 7 5 3 3 5 6 6 5 3 1 0 0 0 1 1 0 0 0 0 1 1 1 2 2 2 2 1 1 2 3 2 1 1 3 5 5 3 1 0 0 1
15 12 8 5 4 3 3 4 4 3 1 0 0 0 0 0 0 0 0 0 0 1 1 1 1 1 1 2 1 1 1 1 0 0 1 3 6 6 5 4 2 0 0
13 12 9 7 5 4 3 3 3 2 1 0 0 0 0 0 0 0 0 0 0 1 1 0 0 0 0 1 1 0 0 0 0 0 0 3 6 7 8 8 4 1 0
11 10 9 8 6 4 3 3 3 3 1 0 0 0 0 0 0 0 0 0 0 0 0 0 0 0 0 0 0 0 0 0 0 0 0 2 5 7 9 9 7 3 1
8 7 7 6 4 3 3 3 3 3 2 1 1 0 0 0 0 0 0 0 0 0 0 0 0 0 0 0 0 0 0 0 0 0 0 1 5 7 8 9 8 7 5
6 6 5 4 4 4 3 3 1 2 3 4 2 1 1 1 0 0 0 0 0 0 0 0 0 0 0 0 0 0 0 0 0 0 0 1 3 6 7 7 8 8 8
8 7 6 4 4 4 4 3 1 1 3 5 4 3 2 2 1 0 0 0 0 0 0 0 0 0 0 0 0 0 0 0 0 0 0 0 1 3 4 6 7 8 8
8 6 5 5 4 3 3 3 3 3 4 6 5 4 3 2 1 0 1 1 1 0 0 0 0 0 0 0 0 0 0 0 0 0 0 0 0 1 1 3 4 5 5
6 5 4 4 3 2 3 4 4 4 4 4 4 3 2 1 1 1 2 2 1 0 0 0 0 0 0 0 0 0 0 1 1 1 1 0 0 0 0 1 1 1 2
5 4 3 3 2 2 4 5 5 3 2 2 1 1 1 2 2 2 3 1 0 0 0 0 0 0 0 1 1 0 1 2 2 2 2 1 1 0 0 0 0 0 0
6 5 3 3 2 3 5 6 5 3 1 0 0 0 1 1 1 2 2 1 0 0 0 0 0 0 1 2 2 1 1 2 1 1 2 3 2 1 0 0 0 0 0
8 6 5 4 4 4 6 6 3 1 0 0 0 0 0 0 0 1 2 1 0 0 1 1 1 1 1 3 3 2 2 2 1 1 2 2 2 1 0 0 0 0 0
7 6 6 6 5 5 6 5 3 1 0 0 0 0 0 0 0 1 2 1 0 0 0 1 2 2 3 3 3 3 3 3 3 2 2 2 1 0 0 0 0 0 0
5 5 6 6 6 5 6 6 5 2 0 0 0 0 0 0 0 1 2 1 0 0 0 1 2 3 3 3 3 3 3 3 3 3 3 2 2 1 0 0 0 0 0
4 5 6 7 6 7 7 8 6 3 1 1 0 0 0 0 1 1 2 1 0 0 0 1 2 3 3 3 3 3 3 3 3 3 3 3 2 1 0 0 0 0 0
5 5 7 7 8 8 9 9 7 4 2 2 1 0 0 1 2 2 2 1 1 0 0 0 1 2 3 3 3 3 3 3 3 3 3 2 1 0 0 0 0 0 0
Wind_Speed
3 4 8 8 8 8 9 9 9 9 9 9 9 9 8 8 7 7 7 7 7 7 7 6 6 6 6 6 6 6 6 7 8 8 9 9 9 9 10 10 9 7 10
6 5 10 9 8 8 8 8 8 8 9 8 8 8 8 7 7 7 6 6 6 6 6 6 6 6 6 6 6 6 6 6 7 8 8 8 9 9 9 10 10 7 11
7 5 8 10 9 8 8 8 8 8 8 8 7 7 7 7 6 6 6 6 6 5 5 6 6 6 6 6 6 6 5 6 6 7 7 5 6 9 10 10 10 10 11
8 5 7 10 9 9 8 8 8 8 8 7 7 7 6 6 6 5 5 5 5 5 5 5 5 5 5 5 5 5 5 5 5 6 4 4 4 8 10 10 10 11 11
6 5 6 11 10 9 8 8 8 8 7 7 6 6 5 5 5 5 5 5 5 5 5 5 5 5 4 4 4 4 5 5 6 5 4 4 3 7 9 10 11 11 11
6 4 6 11 9 9 8 7 7 7 7 6 6 5 5 5 4 4 4 4 4 5 5 4 4 4 4 4 4 4 4 4 5 3 3 4 4 7 9 10 10 11 10
6 4 4 10 9 8 7 7 6 6 5 5 5 5 5 4 4 3 3 3 4 4 4 4 4 4 3 4 3 4 4 4 4 4 3 3 5 8 9 10 10 10 10
6 4 4 8 9 8 7 6 5 5 4 4 4 4 4 4 4 3 3 4 4 4 4 4 3 3 3 3 3 3 3 3 4 4 3 3 6 8 9 10 9 10 10
5 4 3 3 5 7 6 6 5 4 3 3 3 3 3 4 3 3 3 3 3 3 3 3 2 2 2 2 2 2 3 3 3 3 4 3 6 8 9 9 9 9 9
4 3 2 2 2 2 2 5 4 3 3 2 2 3 3 3 3 3 2 2 2 2 2 2 2 1 1 1 1 2 3 2 2 3 2 3 6 8 8 8 8 8 8
4 2 2 2 2 2 1 3 3 3 2 2 1 2 2 2 2 2 2 1 1 1 1 1 1 1 2 1 1 2 2 1 2 2 2 5 7 8 8 8 8 8 8
5 4 3 3 2 2 2 1 1 1 1 1 1 1 1 1 1 1 2 2 2 1 1 1 1 2 2 2 1 1 1 1 2 2 3 6 6 7 8 8 8 7 7
6 5 4 3 2 2 1 1 1 0 1 1 1 1 1 1 1 2 1 2 3 2 2 2 2 2 2 2 1 1 1 1 1 1 3 6 6 7 7 7 7 7 7
5 5 3 3 3 2 1 1 1 1 0 0 1 1 0 0 1 1 1 1 1 1 1 1 1 2 2 2 2 2 1 1 1 1 2 5 6 6 7 7 7 7 7
4 4 4 4 3 2 1 1 1 1 1 1 0 1 0 0 1 1 1 1 1 1 1 1 1 2 2 2 2 2 1 1 1 0 1 3 5 6 7 6 6 7 7
5 4 3 4 3 3 2 1 1 1 1 0 1 1 1 1 0 0 1 1 1 1 0 0 1 1 1 1 2 2 1 1 1 1 1 1 3 5 5 5 5 5 6
5 4 4 4 3 3 2 2 1 1 1 0 1 1 1 1 1 1 0 0 0 0 1 1 2 2 1 2 2 2 1 1 1 1 1 1 1 2 3 4 4 4 5
4 4 4 4 4 3 2 2 1 1 1 0 0 1 1 0 1 1 0 0 0 0 1 1 1 1 1 1 1 1 1 1 1 0 1 1 1 0 1 2 3 4 4
5 5 4 3 4 3 2 2 1 1 0 0 0 0 1 0 0 1 0 0 0 1 1 1 1 1 1 1 1 1 1 1 1 0 0 0 0 0 1 0 1 3 4
5 5 4 4 3 3 2 2 1 1 1 1 1 1 0 0 0 1 0 0 1 1 1 1 1 1 1 0 1 2 2 1 1 1 1 0 0 0 1 1 1 0 1
4 4 4 4 3 3 2 2 1 1 1 1 1 1 1 1 0 1 0 1 1 1 1 1 1 1 1 1 1 2 2 2 1 1 1 1 1 0 1 1 0 0 0
5 5 4 4 4 3 2 2 1 1 0 1 1 1 1 1 0 1 1 0 0 0 0 0 1 1 0 1 1 1 1 2 2 2 1 0 0 1 1 1 1 0 0
5 6 5 4 3 3 2 2 2 2 1 1 1 1 2 1 1 0 1 1 1 1 1 1 1 2 1 0 1 2 2 1 1 1 1 1 1 1 0 0 0 0 1
5 4 4 4 4 3 3 3 3 2 2 2 1 2 2 1 1 1 1 1 1 1 1 1 1 1 2 1 0 0 1 2 1 1 1 1 1 0 0 0 1 1 1
5 4 4 4 3 3 3 4 3 2 2 1 1 1 2 2 1 1 1 1 1 1 1 1 1 1 1 2 1 1 1 1 1 2 1 1 1 1 0 1 1 1 1
3 3 4 4 3 3 3 3 3 3 2 1 1 1 2 2 2 1 1 1 1 1 2 2 2 1 1 1 1 1 2 2 2 2 2 1 1 1 1 1 1 1 1
Wind_Direction
177 175 160 148 140 133 127 122 117 114 111 112 111 111 110 110 110 107 109 118 120 126 128 130 129 127 128 127 131 139 141 144 148 153 154 153 152 150 149 146 142 137 138
154 161 158 151 143 135 128 125 120 115 114 114 112 110 109 109 108 105 104 113 118 123 127 132 132 127 127 126 127 136 141 143 151 159 162 160 157 157 154 151 149 141 140
141 153 155 150 145 135 127 122 118 116 115 113 112 111 112 111 109 106 104 105 113 121 124 129 132 128 127 127 126 129 135 140 151 161 162 154 159 164 161 155 151 149 146
143 147 151 150 144 137 129 124 121 119 116 114 114 113 112 109 108 109 106 103 106 114 120 123 127 131 130 129 129 130 132 136 145 152 144 145 156 165 162 159 158 155 151
138 145 158 149 144 137 131 128 126 121 118 117 116 115 112 108 107 109 108 105 103 106 114 122 128 129 130 128 130 133 138 144 150 145 131 135 141 155 159 161 159 155 150
138 147 161 149 146 139 135 131 126 122 117 115 113 112 111 105 103 103 103 109 107 107 112 119 128 128 129 129 131 136 139 147 141 129 130 139 144 156 157 155 155 153 150
145 151 163 151 149 144 138 133 129 124 118 115 111 105 106 103 99 95 94 115 125 117 112 110 104 113 123 130 135 144 144 144 132 129 133 144 150 156 155 154 152 151 148
146 148 155 156 152 151 146 139 133 127 121 116 113 106 101 101 92 84 71 86 106 105 105 102 97 95 107 126 139 147 144 144 141 139 138 144 150 156 159 157 152 150 150
132 135 146 154 158 158 154 146 142 138 130 120 112 106 98 89 90 81 75 66 75 80 89 85 80 80 83 97 130 150 148 153 133 143 153 147 156 162 161 158 156 153 155
123 135 143 139 133 141 154 161 159 156 149 142 123 113 102 84 74 73 69 70 60 51 60 63 55 56 68 76 119 152 158 164 132 140 148 150 158 165 160 158 160 159 158
148 149 150 145 136 132 153 179 165 158 155 145 127 118 87 35 17 23 38 48 44 28 16 18 30 31 46 53 89 133 162 121 135 141 150 160 164 162 161 166 166 166 163
176 179 174 171 160 155 181 146 99 115 92 67 43 37 36 26 354 7 0 10 16 6 344 356 15 31 33 31 43 69 72 118 148 154 161 169 171 168 166 167 168 170 170
182 182 182 179 167 166 173 144 105 80 58 36 27 34 31 19 353 357 0 355 360 2 14 24 23 34 46 49 52 60 71 128 145 157 165 175 178 178 174 171 172 177 178
177 186 181 172 168 174 163 154 138 133 134 299 330 1 46 355 340 336 353 356 8 7 28 44 52 38 44 48 64 67 73 99 121 156 175 186 189 193 187 181 179 181 184
180 185 183 175 173 169 159 193 167 179 198 220 257 284 217 235 299 319 334 2 5 14 35 60 71 53 46 45 51 72 77 74 91 146 200 198 200 201 197 187 190 189 191
184 181 170 162 161 151 159 177 177 185 201 229 259 268 237 209 228 280 328 4 360 355 22 94 97 78 51 47 43 52 56 63 68 56 11 261 217 204 200 197 193 191 194
176 173 166 159 149 153 164 171 155 160 151 170 267 271 240 196 196 194 179 331 314 25 87 90 77 73 65 54 40 39 47 47 52 36 30 8 308 212 200 200 198 195 200
160 162 167 166 157 169 171 163 141 125 130 174 318 313 301 244 185 180 169 248 249 97 97 99 89 83 64 53 34 16 30 45 40 29 47 63 44 334 237 198 199 200 202
167 165 162 158 159 166 152 135 112 96 88 25 31 342 307 300 195 170 199 230 137 113 92 126 99 121 101 53 34 24 23 28 354 5 56 93 105 43 314 291 218 192 197
161 161 161 162 156 144 124 100 76 54 9 12 0 308 319 326 59 139 179 60 98 99 83 106 104 93 107 99 51 29 14 7 20 21 336 6 23 333 4 14 2 99 189
155 158 167 167 162 145 137 141 141 199 278 315 297 299 312 332 31 97 68 46 78 124 177 168 140 117 116 122 78 23 6 20 29 22 20 35 16 4 61 49 38 1 345
173 174 174 177 173 168 170 167 165 160 214 251 298 328 322 317 279 156 122 144 152 135 106 177 159 154 161 118 128 92 4 359 5 22 24 59 20 38 37 28 65 132 198
180 184 183 179 172 167 145 111 86 64 36 5 321 306 300 293 277 198 170 168 184 187 205 227 207 179 187 170 144 149 155 226 325 354 20 40 37 57 350 347 5 352 199
192 182 178 169 167 168 155 149 153 170 201 228 242 260 289 293 274 232 188 179 182 193 207 235 199 198 178 200 160 138 165 165 160 346 355 22 30 44 330 323 307 289 245
181 174 172 160 167 167 166 166 165 188 217 247 281 293 296 300 290 266 192 181 183 200 206 218 204 200 186 182 174 156 132 105 144 160 248 330 355 353 320 254 267 272 247
162 159 160 156 164 160 163 167 174 186 192 198 264 281 291 295 293 290 229 191 197 214 208 207 202 187 181 159 151 146 159 163 169 163 183 232 294 315 335 322 263 264 242